Weather in Dobrinka

Russia / Orenburg Oblast     52°38′17″N   54°39′04″E
temp.,
°C
wind,
m/s
gust,
m/s
humid.,
%
clouds,
%
prec.,
mm/h
press.,
hPa
HPBL,
m
25 january, mon
mon2523:00−2wsw6129673 0.1 1032308
02:00−1wsw699796 0.0 1033375
05:00−2sw589798 0.0 1034418
08:00−1sw4896100 0.0 1034377
11:00−1s3795100 0.0 1035405
14:00−3s489492 0.0 1034327
17:00−5s589791 0.1 1034354
20:00−4s5994100 0.1 1034311
26 january, tue
tue2623:00−5sse599599 0.1 1034282
02:00−3s5994100 0.0 1034518
05:00−5s5894100 0.1 1034289
08:00−10sse4796100 0.0 1034137
11:00−9sse4895100 0.0 1034183
14:00−7sse599299 0.0 1034290
17:00−7sse599299 0.0 1033236
20:00−8sse51094100 0.0 1034228
27 january, wed
wed2723:00−8s51195100 0.0 1033246
02:00−6s51196100 0.0 1033318
05:00−5s51095100 0.1 1034368
08:00−4s5995100 0.0 1033393
11:00−5sse61094100 0.1 1033317
14:00−7sse5109299 0.0 1033293
17:00−8sse599487 0.0 1032239
20:00−9sse499574 0.0 1032179
28 january, thu
thu2823:00−9sse5119487 0.0 1031217
02:00−9sse5119393 0.0 1031230
05:00−10sse4109297 0.0 1030209
08:00−11sse41091100 0.0 1029223
11:00−11sse51090100 0.0 1029246
14:00−9sse51088100 0.0 1028284
17:00−9se4991100 0.0 1026234
20:00−10se41091100 0.0 1026202
29 january, fri
fri2923:00−10se41189100 0.0 1024222
02:00−10se51287100 0.0 1024237
05:00−11se51286100 0.0 1022246
08:00−9se61282100 0.0 1020265
11:00−7se71479100 0.0 1018321
14:00−4se91676100 0.0 1015436
17:00−5se71485100 0.0 1012512
20:00−4se91594100 2.4 1011583